Flag for U.S.A. Weather past 2 weeks in Lowell, Massachusetts, U.S.A.

Now
35 °F

Clear.


Feels Like: 31 °F
Forecast: 33 / 60 °F
Wind: 5 mph from West

Location: Hanscom Field


UV Index: 5 (Moderate)

Visibility: 10 mi


Pressure: 30.22 "Hg

Humidity: 92%

Dew point: 33 °F

Location of LowellLocation

Historic Weather in Lowell

°F

Lowell temperature yesterday

Maximum temperature yesterday: 46 °F (at 1:56 PM)
Minimum temperature yesterday: 26 °F (at 3:56 AM)
Average temperature yesterday: 37 °F

Past Weeks' High & Low Weather Summary

 TemperatureHumidityPressure
High76 °F (Apr 14, 11:56 AM)100% (Apr 5, 12:56 AM)30.84 "Hg (Apr 5, 12:56 AM)
Low25 °F (Apr 17, 1:56 AM)17% (Apr 10, 1:56 PM)29.33 "Hg (Apr 8, 4:56 PM)
Average47 °F65%30.07 "Hg
* Reported Apr 4 5:56 AM — Apr 19 5:56 AM, Lowell, Weather by CustomWeather, © 2014

Note: Actual official high and low records may vary slightly from our data, if they occured in-between our weather recording intervals... More about our weather records

Advertising

Historic Weather Conditions — Data for Previous 24 hours

 ConditionsComfort  
Time TempWeatherWind HumidityBarometerVisibility
5:56 AM
Apr 19
34 °FPassing clouds.3 mph97%30.21 "Hg10 mi
4:56 AM33 °FClear.No wind96%30.21 "Hg10 mi
3:56 AM34 °FClear.No wind97%30.22 "Hg10 mi
2:56 AM35 °FClear.5 mph92%30.22 "Hg10 mi
1:56 AM36 °FClear.No wind92%30.24 "Hg10 mi
12:56 AM36 °FPassing clouds.No wind89%30.26 "Hg10 mi
11:56 PM
Apr 18
37 °FPassing clouds.No wind86%30.29 "Hg10 mi
10:56 PM37 °FClear.3 mph86%30.31 "Hg10 mi
9:56 PM37 °FClear.5 mph86%30.32 "Hg10 mi
8:56 PM37 °FClear.3 mph82%30.34 "Hg10 mi
7:56 PM38 °FSunny.8 mph79%30.33 "Hg10 mi
6:56 PM40 °FSunny.10 mph70%30.34 "Hg10 mi
5:56 PM42 °FSunny.7 mph62%30.37 "Hg10 mi
4:56 PM43 °FSunny.7 mph60%30.40 "Hg10 mi
3:56 PM43 °FSunny.7 mph60%30.44 "Hg10 mi
2:56 PM45 °FScattered clouds.8 mph56%30.46 "Hg10 mi
1:56 PM46 °FSunny.8 mph51%30.49 "Hg10 mi
12:56 PM45 °FPassing clouds.7 mph53%30.49 "Hg10 mi
12:03 PM44 °FPartly sunny.9 mph53%30.48 "Hg10 mi
11:56 AM44 °FPartly sunny.10 mph53%30.54 "Hg10 mi
10:56 AM41 °FPartly sunny.12 mph60%30.59 "Hg10 mi
9:56 AM39 °FOvercast.3 mph67%30.62 "Hg10 mi
8:56 AM36 °FOvercast.7 mph75%30.59 "Hg10 mi
7:56 AM33 °FOvercast.7 mph85%30.59 "Hg10 mi
Weather by CustomWeather, © 2014

See weather overview